DW0775 Weather Reports


Display with metric or nautical units.
time (UTC)temp
F
wind
direction
speed
MPH
gust
MPH
rain 1hr
in
rain 24hr
in
rain mn
in
humidity
%
barometer
mb
20180814232831 85 228 2.0 7.0 0.00 0.00 0.00 57 1012.7
20180814232330 85 281 2.0 9.0 0.00 0.00 0.00 56 1012.6
20180814231843 85 250 2.0 11.0 0.00 0.00 0.00 56 1012.6
20180814231340 86 245 2.0 11.0 0.00 0.00 0.00 56 1012.6
20180814230835 86 243 2.0 9.0 0.00 0.00 0.00 56 1012.6
20180814230329 86 193 1.0 10.0 0.00 0.00 0.00 56 1012.6
20180814225844 86 249 3.0 11.0 0.00 0.00 0.00 56 1012.6
20180814225340 86 265 2.0 11.0 0.00 0.00 0.00 56 1012.6
20180814224833 87 269 1.0 11.0 0.00 0.00 0.00 56 1012.6
20180814224331 87 275 3.0 11.0 0.00 0.00 0.00 56 1012.6
20180814223846 87 256 3.0 11.0 0.00 0.00 0.00 56 1012.7
20180814223343 87 288 0.0 11.0 0.00 0.00 0.00 56 1012.7
20180814222836 87 219 0.0 11.0 0.00 0.00 0.00 56 1012.6
20180814222332 88 265 1.0 10.0 0.00 0.00 0.00 55 1012.5
20180814221831 88 266 1.0 10.0 0.00 0.00 0.00 55 1012.5
20180814221329 88 278 2.0 10.0 0.00 0.00 0.00 55 1012.5
20180814220845 88 263 2.0 10.0 0.00 0.00 0.00 56 1012.4
20180814220338 88 254 1.0 6.0 0.00 0.00 0.00 55 1012.6
20180814215832 88 256 1.0 6.0 0.00 0.00 0.00 55 1012.6
20180814215329 88 243 1.0 6.0 0.00 0.00 0.00 55 1012.6
20180814214842 88 280 2.0 6.0 0.00 0.00 0.00 55 1012.6
20180814214340 88 252 2.0 5.0 0.00 0.00 0.00 56 1012.7
20180814213835 87 313 0.0 6.0 0.00 0.00 0.00 56 1012.6
20180814213331 88 269 0.0 6.0 0.00 0.00 0.00 55 1012.5
20180814212845 88 277 2.0 6.0 0.00 0.00 0.00 54 1012.5
20180814212343 88 273 3.0 8.0 0.00 0.00 0.00 53 1012.6
20180814211836 89 250 2.0 8.0 0.00 0.00 0.00 52 1012.6
20180814211333 89 264 4.0 8.0 0.00 0.00 0.00 53 1012.6
20180814210828 88 273 0.0 5.0 0.00 0.00 0.00 54 1012.5
20180814210344 88 273 1.0 5.0 0.00 0.00 0.00 54 1012.5
20180814205839 89 284 1.0 10.0 0.00 0.00 0.00 53 1012.5
20180814205340 89 275 2.0 12.0 0.00 0.00 0.00 53 1012.5
20180814204832 89 312 3.0 12.0 0.00 0.00 0.00 53 1012.5
20180814204328 89 240 0.0 10.0 0.00 0.00 0.00 54 1012.5
20180814203843 90 249 2.0 10.0 0.00 0.00 0.00 52 1012.5
20180814203338 90 219 5.0 10.0 0.00 0.00 0.00 51 1012.5
20180814202834 90 236 4.0 10.0 0.00 0.00 0.00 51 1012.4
20180814202331 90 237 2.0 10.0 0.00 0.00 0.00 51 1012.5
20180814201844 90 230 3.0 12.0 0.00 0.00 0.00 52 1012.5
20180814201341 90 237 3.0 12.0 0.00 0.00 0.00 52 1012.6
20180814200837 89 198 1.0 11.0 0.00 0.00 0.00 51 1012.5
20180814200333 89 227 2.0 11.0 0.00 0.00 0.00 52 1012.6
20180814195827 89 246 1.0 6.0 0.00 0.00 0.00 53 1012.6
20180814195345 89 251 3.0 6.0 0.00 0.00 0.00 52 1012.6
20180814194838 89 251 1.0 6.0 0.00 0.00 0.00 53 1012.7
20180814194334 89 236 2.0 6.0 0.00 0.00 0.00 51 1012.7
20180814193829 89 241 1.0 7.0 0.00 0.00 0.00 51 1012.8
20180814193330 89 243 1.0 7.0 0.00 0.00 0.00 53 1012.9
20180814192846 88 224 2.0 7.0 0.00 0.00 0.00 55 1013.1
20180814192342 88 218 1.0 15.0 0.00 0.00 0.00 58 1012.9
20180814191835 88 202 3.0 15.0 0.00 0.00 0.00 58 1013.0
20180814191331 88 238 6.0 11.0 0.00 0.00 0.00 58 1013.2
20180814190846 88 238 4.0 9.0 0.00 0.00 0.00 57 1013.2
20180814190340 88 243 1.0 5.0 0.00 0.00 0.00 56 1013.2
20180814185838 88 233 1.0 7.0 0.00 0.00 0.00 56 1013.4
20180814185335 87 232 0.0 7.0 0.00 0.00 0.00 57 1013.4
20180814184828 87 237 1.0 5.0 0.00 0.00 0.00 58 1013.4
20180814184345 87 238 1.0 5.0 0.00 0.00 0.00 58 1013.4
20180814183841 86 234 1.0 7.0 0.00 0.00 0.00 57 1013.4
20180814183337 87 254 2.0 7.0 0.00 0.00 0.00 60 1013.4
20180814182830 87 263 3.0 7.0 0.00 0.00 0.00 60 1013.4
20180814182348 87 240 0.0 9.0 0.00 0.00 0.00 60 1013.5
20180814181841 86 206 2.0 8.0 0.00 0.00 0.00 61 1013.5
20180814181339 86 219 2.0 8.0 0.00 0.00 0.00 62 1013.7
20180814180838 86 224 1.0 7.0 0.00 0.00 0.00 61 1013.8
20180814180333 86 226 2.0 10.0 0.00 0.00 0.00 64 1013.9
20180814175846 86 219 0.0 10.0 0.00 0.00 0.00 64 1013.8
20180814175343 86 211 3.0 14.0 0.00 0.00 0.00 64 1013.8
20180814174837 85 202 1.0 14.0 0.00 0.00 0.00 63 1013.8
20180814174333 86 221 7.0 11.0 0.00 0.00 0.00 63 1014.0
20180814173829 85 213 1.0 12.0 0.00 0.00 0.00 64 1013.9
20180814173344 85 227 3.0 12.0 0.00 0.00 0.00 64 1014.0
20180814172839 85 219 2.0 7.0 0.00 0.00 0.00 65 1014.0
20180814172336 84 198 0.0 13.0 0.00 0.00 0.00 67 1014.0
20180814171830 84 198 6.0 11.0 0.00 0.00 0.00 66 1014.0
20180814171347 84 221 1.0 9.0 0.00 0.00 0.00 67 1014.0
20180814170842 84 226 4.0 15.0 0.00 0.00 0.00 67 1014.0
20180814170337 83 219 7.0 15.0 0.00 0.00 0.00 68 1014.0
20180814165831 83 213 6.0 10.0 0.00 0.00 0.00 69 1014.1
20180814165329 83 224 2.0 11.0 0.00 0.00 0.00 69 1014.1
20180814164841 83 222 5.0 11.0 0.00 0.00 0.00 69 1014.2
20180814164341 83 221 2.0 10.0 0.00 0.00 0.00 69 1014.2
20180814163837 82 223 4.0 10.0 0.00 0.00 0.00 70 1014.3
20180814163335 82 219 0.0 10.0 0.00 0.00 0.00 70 1014.4
20180814162829 82 219 6.0 10.0 0.00 0.00 0.00 70 1014.5
20180814162346 82 205 3.0 10.0 0.00 0.00 0.00 70 1014.5
20180814161839 82 205 3.0 10.0 0.00 0.00 0.00 71 1014.6
20180814161334 81 211 2.0 10.0 0.00 0.00 0.00 71 1014.6
20180814160829 81 211 3.0 12.0 0.00 0.00 0.00 71 1014.6
20180814160343 81 205 5.0 12.0 0.00 0.00 0.00 70 1014.6
20180814155838 81 221 1.0 10.0 0.00 0.00 0.00 72 1014.7
20180814155335 80 228 3.0 11.0 0.00 0.00 0.00 72 1014.6
20180814154828 80 217 1.0 11.0 0.00 0.00 0.00 72 1014.7
20180814154345 80 221 0.0 8.0 0.00 0.00 0.00 72 1014.7
20180814153840 80 222 0.0 10.0 0.00 0.00 0.00 73 1014.6
20180814153333 79 221 3.0 10.0 0.00 0.00 0.00 73 1014.5
20180814152828 79 226 2.0 8.0 0.00 0.00 0.00 73 1014.6
20180814152330 79 218 0.0 6.0 0.00 0.00 0.00 74 1014.6
20180814151843 78 218 2.0 7.0 0.00 0.00 0.00 74 1014.6
20180814151340 78 215 4.0 7.0 0.00 0.00 0.00 74 1014.5
20180814150834 78 209 4.0 9.0 0.00 0.00 0.00 73 1014.7
20180814150329 78 210 5.0 9.0 0.00 0.00 0.00 74 1014.6
20180814145845 78 214 4.0 8.0 0.00 0.00 0.00 74 1014.7
20180814145340 77 214 4.0 10.0 0.00 0.00 0.00 74 1014.7
20180814144833 77 207 2.0 10.0 0.00 0.00 0.00 75 1014.6
20180814144329 76 211 0.0 10.0 0.00 0.00 0.00 76 1014.6
20180814143844 76 211 4.0 11.0 0.00 0.00 0.00 75 1014.7
20180814143339 76 205 4.0 11.0 0.00 0.00 0.00 76 1014.8
20180814142833 75 186 4.0 9.0 0.00 0.00 0.00 76 1014.8
20180814142329 75 183 4.0 9.0 0.00 0.00 0.00 76 1014.8
20180814141843 75 130 2.0 6.0 0.00 0.00 0.00 78 1014.8
20180814141339 74 125 4.0 6.0 0.00 0.00 0.00 79 1014.8
20180814140835 74 110 0.0 0.0 0.00 0.00 0.00 81 1014.9
20180814140330 73 90 0.0 0.0 0.00 0.00 0.00 83 1014.9
20180814135828 73 90 0.0 0.0 0.00 0.00 0.00 83 1014.9
20180814135345 72 87 0.0 0.0 0.00 0.00 0.00 85 1015.0
20180814134838 71 87 0.0 0.0 0.00 0.00 0.00 86 1015.0
20180814134335 71 87 0.0 0.0 0.00 0.00 0.00 87 1015.0
20180814133830 70 87 0.0 0.0 0.00 0.00 0.00 89 1015.0
20180814133347 70 87 0.0 0.0 0.00 0.00 0.00 90 1014.8
20180814132840 70 87 0.0 0.0 0.00 0.00 0.00 91 1014.9
20180814132339 69 87 0.0 0.0 0.00 0.00 0.00 92 1014.8
20180814131831 69 87 0.0 0.0 0.00 0.00 0.00 92 1015.0
20180814131329 68 87 0.0 0.0 0.00 0.00 0.00 93 1015.1
20180814130847 67 87 0.0 0.0 0.00 0.00 0.00 93 1015.1
20180814130344 67 87 0.0 0.0 0.00 0.00 0.00 93 1015.1
20180814125839 67 87 0.0 0.0 0.00 0.00 0.00 93 1015.1
20180814125336 66 87 0.0 0.0 0.00 0.00 0.00 94 1015.2
20180814124828 66 82 0.0 0.0 0.00 0.00 0.00 94 1015.2
20180814124345 66 82 0.0 0.0 0.00 0.00 0.00 94 1015.2
20180814123841 65 82 0.0 0.0 0.00 0.00 0.00 94 1015.1
20180814123341 65 82 0.0 0.0 0.00 0.00 0.00 94 1015.1
20180814122835 65 82 0.0 0.0 0.00 0.00 0.00 94 1015.1
20180814122333 64 82 0.0 0.0 0.00 0.00 0.00 94 1015.1
20180814121846 64 82 0.0 0.0 0.00 0.00 0.00 94 1015.0
20180814121343 64 82 0.0 0.0 0.00 0.00 0.00 94 1015.0
20180814120838 64 82 0.0 0.0 0.00 0.00 0.00 94 1015.0
20180814120333 64 82 0.0 0.0 0.00 0.00 0.00 94 1015.0
20180814115828 64 82 0.0 0.0 0.00 0.00 0.00 94 1014.9
20180814115345 63 82 0.0 0.0 0.00 0.00 0.00 94 1014.9
20180814114840 63 82 0.0 0.0 0.00 0.00 0.00 94 1014.9
20180814114338 63 82 0.0 0.0 0.00 0.00 0.00 94 1014.8
20180814113832 63 82 0.0 0.0 0.00 0.00 0.00 94 1014.8
20180814113328 64 82 0.0 0.0 0.00 0.00 0.00 94 1014.8
20180814112843 63 82 0.0 0.0 0.00 0.00 0.00 94 1014.6
20180814112340 63 82 0.0 0.0 0.00 0.00 0.00 94 1014.8
20180814111834 63 82 0.0 0.0 0.00 0.00 0.00 93 1014.8
20180814111335 63 82 0.0 0.0 0.00 0.00 0.00 93 1014.9
20180814110829 63 82 0.0 0.0 0.00 0.00 0.00 93 1014.9
20180814110344 63 82 0.0 0.0 0.00 0.00 0.00 93 1014.8
20180814105840 63 82 0.0 0.0 0.00 0.00 0.00 93 1014.7
20180814105337 63 82 0.0 0.0 0.00 0.00 0.00 92 1014.8
20180814104830 63 82 0.0 0.0 0.00 0.00 0.00 92 1014.7
20180814104329 64 82 0.0 0.0 0.00 0.00 0.00 92 1014.6
20180814103844 64 82 0.0 0.0 0.00 0.00 0.00 92 1014.6
20180814103340 64 82 0.0 0.0 0.00 0.00 0.00 91 1014.6
20180814102835 64 82 0.0 0.0 0.00 0.00 0.00 91 1014.6
20180814102331 64 82 0.0 0.0 0.00 0.00 0.00 92 1014.6
20180814101846 64 82 0.0 0.0 0.00 0.00 0.00 92 1014.6
20180814101342 64 82 0.0 0.0 0.00 0.00 0.00 92 1014.6
20180814100836 64 82 0.0 0.0 0.00 0.00 0.00 91 1014.6
20180814100332 65 82 0.0 0.0 0.00 0.00 0.00 91 1014.6
20180814095845 65 82 0.0 0.0 0.00 0.00 0.00 91 1014.7
20180814095344 65 82 0.0 0.0 0.00 0.00 0.00 91 1014.6
20180814094841 65 82 0.0 0.0 0.00 0.00 0.00 91 1014.5
20180814094337 65 82 0.0 0.0 0.00 0.00 0.00 91 1014.6
20180814093833 65 82 0.0 0.0 0.00 0.00 0.00 91 1014.5
20180814093328 65 82 0.0 0.0 0.00 0.00 0.00 91 1014.4
20180814092843 65 82 0.0 0.0 0.00 0.00 0.00 91 1014.5
20180814092340 65 82 0.0 0.0 0.00 0.00 0.00 90 1014.6
20180814091833 65 82 0.0 0.0 0.00 0.00 0.00 90 1014.6
20180814091330 65 82 0.0 0.0 0.00 0.00 0.00 90 1014.7
20180814090846 65 82 0.0 0.0 0.00 0.00 0.00 89 1014.7
20180814090341 65 82 0.0 0.0 0.00 0.00 0.00 88 1014.6
20180814085834 65 82 0.0 0.0 0.00 0.00 0.00 88 1014.5
20180814085331 66 82 0.0 0.0 0.00 0.00 0.00 88 1014.5
20180814084845 66 82 0.0 0.0 0.00 0.00 0.00 88 1014.5
20180814084341 66 82 0.0 0.0 0.00 0.00 0.00 88 1014.6
20180814083834 66 82 0.0 0.0 0.00 0.00 0.00 88 1014.7
20180814083331 66 82 0.0 0.0 0.00 0.00 0.00 88 1014.7
20180814082831 66 82 0.0 0.0 0.00 0.00 0.00 87 1014.8
20180814082347 66 82 0.0 0.0 0.00 0.00 0.00 87 1014.8
20180814081841 66 82 0.0 0.0 0.00 0.00 0.00 87 1014.8
20180814081338 66 82 0.0 0.0 0.00 0.00 0.00 87 1014.8
20180814080833 67 82 0.0 0.0 0.00 0.00 0.00 87 1014.9
20180814080328 67 82 0.0 0.0 0.00 0.00 0.00 87 1014.9
20180814075843 67 82 0.0 0.0 0.00 0.00 0.00 87 1014.9
20180814075339 67 82 0.0 0.0 0.00 0.00 0.00 87 1015.0
20180814074832 67 82 0.0 0.0 0.00 0.00 0.00 87 1015.0
20180814074328 67 82 0.0 0.0 0.00 0.00 0.00 87 1015.0
20180814073845 67 82 0.0 0.0 0.00 0.00 0.00 87 1015.1
20180814073341 67 82 0.0 0.0 0.00 0.00 0.00 87 1015.1
20180814072834 67 82 0.0 0.0 0.00 0.00 0.00 86 1015.2
20180814072331 67 82 0.0 0.0 0.00 0.00 0.00 86 1015.2
20180814071844 67 82 0.0 0.0 0.00 0.00 0.00 86 1015.2
20180814071339 67 82 0.0 0.0 0.00 0.00 0.00 85 1015.3
20180814070834 68 82 0.0 0.0 0.00 0.00 0.00 85 1015.4
20180814070333 68 82 0.0 0.0 0.00 0.00 0.00 84 1015.4
20180814065826 68 82 0.0 0.0 0.00 0.00 0.00 83 1015.3
20180814065343 69 82 0.0 0.0 0.00 0.00 0.00 82 1015.4
20180814064838 69 82 0.0 0.0 0.00 0.00 0.00 82 1015.4
20180814064333 69 82 0.0 0.0 0.00 0.00 0.00 82 1015.4
20180814063828 69 82 0.0 0.0 0.00 0.00 0.00 82 1015.4
20180814063343 70 82 0.0 0.0 0.00 0.00 0.00 82 1015.4
20180814062837 70 82 0.0 0.0 0.00 0.00 0.00 82 1015.5
20180814062333 70 82 0.0 0.0 0.00 0.00 0.00 82 1015.4
20180814061827 70 82 0.0 0.0 0.00 0.00 0.00 82 1015.5
20180814061344 70 82 0.0 0.0 0.00 0.00 0.00 82 1015.6
20180814060838 70 82 0.0 0.0 0.00 0.00 0.00 82 1015.5
20180814060336 70 82 0.0 0.0 0.00 0.00 0.00 82 1015.5
20180814055831 70 82 0.0 0.0 0.00 0.00 0.00 82 1015.6
20180814055328 70 82 0.0 0.0 0.00 0.00 0.00 81 1015.6
20180814054843 70 82 0.0 0.0 0.00 0.00 0.00 81 1015.6
20180814054340 70 82 0.0 0.0 0.00 0.00 0.00 80 1015.8
20180814053840 71 82 0.0 0.0 0.00 0.00 0.00 80 1015.8
20180814053333 71 82 0.0 0.0 0.00 0.00 0.00 79 1015.7
20180814052827 71 82 0.0 0.0 0.00 0.00 0.00 78 1015.6
20180814052344 72 82 0.0 0.0 0.00 0.00 0.00 78 1015.7
20180814051839 72 82 0.0 0.0 0.00 0.00 0.00 78 1015.7
20180814051336 72 82 0.0 0.0 0.00 0.00 0.00 78 1015.7
20180814050832 72 82 0.0 0.0 0.00 0.00 0.00 78 1015.8
20180814050348 72 82 0.0 0.0 0.00 0.00 0.00 77 1015.8
20180814045841 72 82 0.0 0.0 0.00 0.00 0.00 77 1015.7
20180814045337 72 82 0.0 0.0 0.00 0.00 0.00 77 1015.8
20180814044831 72 82 0.0 0.0 0.00 0.00 0.00 77 1015.8
20180814044347 72 82 0.0 0.0 0.00 0.00 0.00 76 1015.8
20180814043842 73 82 0.0 0.0 0.00 0.00 0.00 76 1015.8
20180814043336 73 82 0.0 0.0 0.00 0.00 0.00 76 1015.8
20180814042829 73 82 0.0 0.0 0.00 0.00 0.00 76 1015.9
20180814042347 73 82 0.0 0.0 0.00 0.00 0.00 76 1015.9
20180814041840 73 82 0.0 0.0 0.00 0.00 0.00 76 1015.9
20180814041341 73 82 0.0 0.0 0.00 0.00 0.00 76 1015.8
20180814040836 73 82 0.0 0.0 0.00 0.00 0.00 77 1015.7
20180814040333 73 82 0.0 0.0 0.00 0.00 0.00 76 1015.7
20180814035829 73 82 0.0 0.0 0.00 0.00 0.00 76 1015.7
20180814035346 73 82 0.0 0.0 0.00 0.00 0.00 76 1015.7
20180814034841 73 82 0.0 0.0 0.00 0.00 0.00 75 1015.8
20180814034338 73 82 0.0 0.0 0.00 0.00 0.00 76 1015.8
20180814033832 73 82 0.0 0.0 0.00 0.00 0.00 77 1015.9
20180814033328 72 82 0.0 0.0 0.00 0.00 0.00 80 1016.0
20180814032843 72 82 0.0 0.0 0.00 0.00 0.00 81 1016.1
20180814032339 72 82 0.0 0.0 0.00 0.00 0.00 81 1016.1
20180814031832 72 82 0.0 0.0 0.00 0.00 0.00 81 1016.0
20180814031328 73 82 0.0 0.0 0.00 0.00 0.00 80 1016.0
20180814030844 73 82 0.0 0.0 0.00 0.00 0.00 80 1015.9
20180814030338 73 82 0.0 0.0 0.00 0.00 0.00 78 1016.0
20180814025837 73 82 0.0 0.0 0.00 0.00 0.00 77 1016.0
20180814025336 74 82 0.0 0.0 0.00 0.00 0.00 76 1016.0
20180814024829 75 82 0.0 0.0 0.00 0.00 0.00 76 1015.9
20180814024344 75 82 0.0 0.0 0.00 0.00 0.00 76 1015.9
20180814023839 75 82 0.0 0.0 0.00 0.00 0.00 76 1015.8
20180814023337 75 82 0.0 0.0 0.00 0.00 0.00 76 1015.7
20180814022830 75 82 0.0 0.0 0.00 0.00 0.00 75 1015.7
20180814022346 75 82 0.0 0.0 0.00 0.00 0.00 76 1015.7
20180814021841 75 82 0.0 0.0 0.00 0.00 0.00 76 1015.8
20180814021336 75 82 0.0 0.0 0.00 0.00 0.00 75 1015.7
20180814020831 75 82 0.0 0.0 0.00 0.00 0.00 75 1015.7
20180814020328 75 82 0.0 0.0 0.00 0.00 0.00 75 1015.7
20180814015842 76 82 0.0 0.0 0.00 0.00 0.00 74 1015.7
20180814015339 76 82 0.0 0.0 0.00 0.00 0.00 73 1015.7
20180814014833 77 82 0.0 0.0 0.00 0.00 0.00 71 1015.7
20180814014329 77 82 0.0 0.0 0.00 0.00 0.00 70 1015.6
20180814013845 77 82 0.0 0.0 0.00 0.00 0.00 70 1015.6
20180814013339 78 82 0.0 0.0 0.00 0.00 0.00 69 1015.6
20180814012837 78 82 0.0 0.0 0.00 0.00 0.00 69 1015.5
20180814012334 78 82 0.0 0.0 0.00 0.00 0.00 68 1015.5
20180814011828 79 82 0.0 0.0 0.00 0.00 0.00 68 1015.5
20180814011344 79 82 0.0 0.0 0.00 0.00 0.00 67 1015.5
20180814010838 79 82 0.0 0.0 0.00 0.00 0.00 66 1015.4
20180814010332 79 82 0.0 0.0 0.00 0.00 0.00 66 1015.4
20180814005846 80 82 0.0 0.0 0.00 0.00 0.00 66 1015.3
20180814005344 80 82 0.0 0.0 0.00 0.00 0.00 65 1015.3
20180814004837 80 82 0.0 0.0 0.00 0.00 0.00 64 1015.2
20180814004335 81 82 0.0 0.0 0.00 0.00 0.00 64 1015.1
20180814003829 81 82 0.0 0.0 0.00 0.00 0.00 63 1015.2
20180814003343 82 82 0.0 0.0 0.00 0.00 0.00 63 1015.3
20180814002838 82 82 0.0 0.0 0.00 0.00 0.00 63 1015.3
20180814002336 82 82 0.0 0.0 0.00 0.00 0.00 62 1015.1
20180814001832 82 82 0.0 0.0 0.00 0.00 0.00 62 1015.2
20180814001330 82 82 0.0 0.0 0.00 0.00 0.00 60 1015.0
20180814000830 83 82 0.0 0.0 0.00 0.00 0.00 60 1015.1
20180814000344 83 82 0.0 0.0 0.00 0.00 0.00 59 1015.1
20180813235837 83 82 0.0 0.0 0.00 0.00 0.00 57 1015.1
20180813235333 83 82 0.0 0.0 0.00 0.00 0.00 56 1015.2
20180813234827 83 82 0.0 2.0 0.00 0.00 0.00 55 1015.2
20180813234344 83 82 1.0 2.0 0.00 0.00 0.00 55 1015.2
20180813233839 84 82 0.0 0.0 0.00 0.00 0.00 55 1015.1
20180813233334 84 82 0.0 0.0 0.00 0.00 0.00 54 1015.2